Find Starlink 31530

NORAD ID: 59322 Int'l Des: 2024-057 Owner: SPXS Country: US Constellation: starlink operational
LEOCIRCULAR

当前视图

正在加载3D地球...

About Starlink 31530

Starlink 31530 (NORAD 59322) is a starlink constellation satellite (v2 mini) launched Mar 25, 2024 by SPXS of US. It operates in LEO, CIRCULAR orbit with a mass of 730.00 kg.

关于 Starlink 31530

正在加载描述...

即将过境

Passes for default location (London). Set your location on the main map for personalized predictions.

高度历史

Loading altitude history...

两行轨道根数

1 59322U 24057C 26173.74649189 .00079271 00000-0 62361-3 0 9993
2 59322 42.9875 285.1202 0026546 358.6862 1.3931 15.70045266126236
Epoch: Jun 22, 2026 • Age: 16 hours

当前状态

高度 366.3 km
速度 7.69 km/s
星下点 -40.70°S, 146.75°E
发射日期 Mar 25, 2024
运行时间 2.2 years
类型 internet

技术详情

分类 Payload
质量 730.00 kg
干质量 700.00 kg
总质量 730.00 kg
长度 0.30 m
直径 4.10 m
跨度 29.00 m
形状 Box + pan
制造商 SPXS
平台类型 Starlink V2M
阶段状态 In Orbit
所有者/国家 SPXS/US

Most Searched